CW9181 Weather Reports


time (UTC)temp
C
wind
direction
speed
KPH
gust
KPH
rain 1hr
cm
rain 24hr
cm
rain mn
cm
humidity
%
barometer
mb
20260901052026 16 159 8.0 17.7 0.00 0.00 0.00 75 1012.7
20260901051024 16 158 6.4 16.1 0.00 0.00 0.00 75 1012.7
20260901050028 16 199 6.4 16.1 0.00 0.00 0.00 74 1012.7
20260901045024 17 154 8.0 19.3 0.00 0.00 0.00 74 1012.6
20260901044049 17 105 9.7 17.7 0.00 0.00 0.00 74 1012.5
20260901043028 17 151 11.3 17.7 0.00 0.00 0.00 73 1012.4
20260901042020 17 169 8.0 17.7 0.00 0.00 0.00 72 1012.4
20260901041022 17 186 8.0 19.3 0.00 0.00 0.00 72 1012.3
20260901040022 17 200 8.0 22.5 0.00 0.00 0.00 71 1012.3
20260901035012 17 182 8.0 16.1 0.00 0.00 0.00 71 1012.0
20260901034011 18 165 6.4 16.1 0.00 0.00 0.00 70 1011.8
20260901033016 18 218 6.4 16.1 0.00 0.00 0.00 69 1011.6
20260901032013 18 171 4.8 16.1 0.00 0.00 0.00 69 1011.5
20260901031012 18 239 12.9 19.3 0.00 0.00 0.00 68 1011.3
20260901030013 18 201 4.8 22.5 0.00 0.00 0.00 67 1011.1
20260901025011 19 159 8.0 20.9 0.00 0.00 0.00 66 1011.0
20260901024016 20 137 9.7 17.7 0.00 0.00 0.00 64 1011.1
20260901023018 20 191 8.0 19.3 0.00 0.00 0.00 63 1010.9
20260901022021 20 195 4.8 20.9 0.00 0.00 0.00 60 1010.9
20260901021038 21 216 8.0 17.7 0.00 0.00 0.00 59 1010.8
20260901020021 21 301 8.0 19.3 0.00 0.00 0.00 57 1010.7
20260901015023 22 191 8.0 24.1 0.00 0.00 0.00 55 1010.6
20260901014040 22 189 6.4 17.7 0.00 0.00 0.00 54 1010.3
20260901013017 23 166 6.4 17.7 0.00 0.00 0.00 53 1010.4
20260901012012 23 231 8.0 24.1 0.00 0.00 0.00 50 1010.4
20260901011012 24 203 9.7 19.3 0.00 0.00 0.00 49 1010.4
20260901010204 24 212 11.3 20.9 0.00 0.00 0.00 48 1010.5
20260901005026 24 197 9.7 22.5 0.00 0.00 0.00 48 1010.5
20260901004028 25 213 8.0 24.1 0.00 0.00 0.00 47 1010.7
20260901003010 25 181 4.8 19.3 0.00 0.00 0.00 47 1010.8
20260901002031 25 184 6.4 16.1 0.00 0.00 0.00 47 1010.5
20260901001028 25 210 6.4 16.1 0.00 0.00 0.00 48 1010.7
20260901000010 25 179 8.0 19.3 0.00 0.00 0.00 47 1010.8
20260831235012 25 252 11.3 19.3 0.00 0.00 0.00 47 1010.6
20260831234029 26 227 6.4 19.3 0.00 0.00 0.00 47 1010.7
20260831233030 25 298 8.0 19.3 0.00 0.00 0.00 48 1010.9
20260831232010 25 250 9.7 16.1 0.00 0.00 0.00 48 1011.0
20260831231025 26 178 6.4 17.7 0.00 0.00 0.00 48 1011.0
20260831230023 26 172 3.2 20.9 0.00 0.00 0.00 47 1011.1
20260831225024 25 245 6.4 16.1 0.00 0.00 0.00 48 1011.2
20260831224019 25 195 8.0 20.9 0.00 0.00 0.00 49 1011.3
20260831223020 25 245 8.0 17.7 0.00 0.00 0.00 48 1011.4
20260831222023 25 159 8.0 16.1 0.00 0.00 0.00 49 1011.6
20260831221020 25 231 9.7 16.1 0.00 0.00 0.00 48 1011.6
20260831220020 25 176 8.0 19.3 0.00 0.00 0.00 48 1011.9
20260831215022 25 241 8.0 19.3 0.00 0.00 0.00 48 1011.8
20260831214033 25 265 4.8 16.1 0.00 0.00 0.00 49 1011.8
20260831213015 24 260 8.0 16.1 0.00 0.00 0.00 49 1011.8
20260831212015 24 275 9.7 14.5 0.00 0.00 0.00 50 1012.0
20260831211010 24 203 6.4 16.1 0.00 0.00 0.00 51 1012.1
20260831210012 23 194 8.0 16.1 0.00 0.00 0.00 51 1012.1
20260831205011 23 255 8.0 16.1 0.00 0.00 0.00 51 1012.2
20260831204025 23 169 4.8 14.5 0.00 0.00 0.00 52 1012.3
20260831203027 23 234 3.2 12.9 0.00 0.00 0.00 52 1012.3
20260831202027 23 203 6.4 19.3 0.00 0.00 0.00 53 1012.5
20260831201026 23 260 11.3 19.3 0.00 0.00 0.00 53 1012.3
20260831200028 23 205 4.8 17.7 0.00 0.00 0.00 53 1012.6
20260831195048 22 218 6.4 16.1 0.00 0.00 0.00 54 1012.8
20260831194024 22 235 9.7 17.7 0.00 0.00 0.00 56 1012.9
20260831193022 22 192 11.3 22.5 0.00 0.00 0.00 56 1013.0
20260831192023 22 292 9.7 27.4 0.00 0.00 0.00 55 1012.9
20260831191039 22 205 6.4 16.1 0.00 0.00 0.00 58 1013.0
20260831190015 22 286 4.8 17.7 0.00 0.00 0.00 57 1012.9
20260831185017 22 270 6.4 17.7 0.00 0.00 0.00 56 1012.8
20260831184017 22 174 9.7 17.7 0.00 0.00 0.00 56 1012.8
20260831183018 22 250 4.8 17.7 0.00 0.00 0.00 57 1012.8
20260831182019 22 191 8.0 19.3 0.00 0.00 0.00 58 1013.1
20260831181016 21 168 9.7 20.9 0.00 0.00 0.00 58 1013.0
20260831180018 21 225 8.0 19.3 0.00 0.00 0.00 59 1012.9
20260831175022 21 207 9.7 20.9 0.00 0.00 0.00 60 1012.9
20260831174020 21 251 6.4 17.7 0.00 0.00 0.00 61 1012.8
20260831173016 21 181 8.0 16.1 0.00 0.00 0.00 61 1012.8
20260831172016 20 109 8.0 14.5 0.00 0.00 0.00 61 1012.7
20260831171021 20 189 6.4 16.1 0.00 0.00 0.00 62 1012.7
20260831170019 20 172 6.4 12.9 0.00 0.00 0.00 62 1012.6
20260831165041 20 211 3.2 12.9 0.00 0.00 0.00 64 1012.6
20260831164021 19 189 4.8 16.1 0.00 0.00 0.00 65 1012.7
20260831163038 19 170 11.3 16.1 0.00 0.00 0.00 65 1012.7
20260831162021 18 154 8.0 14.5 0.00 0.00 0.00 66 1012.6
20260831161017 18 132 4.8 12.9 0.00 0.00 0.00 67 1012.6
20260831160017 18 119 8.0 11.3 0.00 0.00 0.00 68 1012.8
20260831155038 17 97 6.4 12.9 0.00 0.00 0.00 70 1012.7
20260831154014 17 195 6.4 16.1 0.00 0.00 0.00 71 1012.7
20260831153018 17 187 6.4 12.9 0.00 0.00 0.00 73 1012.7
20260831152024 16 122 8.0 14.5 0.00 0.00 0.00 75 1012.6
20260831151023 16 165 8.0 16.1 0.00 0.00 0.00 78 1012.6
20260831145014 15 147 1.6 14.5 0.00 0.00 0.00 81 1012.4
20260831144035 15 135 4.8 11.3 0.00 0.00 0.00 82 1012.3
20260831143016 14 196 4.8 11.3 0.00 0.00 0.00 82 1012.2
20260831142019 14 154 6.4 12.9 0.00 0.00 0.00 83 1012.1
20260831141019 14 147 4.8 11.3 0.00 0.00 0.00 83 1012.0
20260831140039 14 178 3.2 9.7 0.00 0.00 0.00 82 1011.6
20260831135018 14 156 3.2 16.1 0.00 0.00 0.00 82 1011.7
20260831134014 14 166 8.0 12.9 0.00 0.00 0.00 82 1011.5
20260831133016 14 151 6.4 16.1 0.00 0.00 0.00 81 1011.4
20260831132020 14 193 3.2 11.3 0.00 0.00 0.00 81 1011.3
20260831131017 14 172 4.8 11.3 0.00 0.00 0.00 81 1011.3
20260831130011 15 197 4.8 11.3 0.00 0.00 0.00 80 1011.0
20260831125018 15 158 4.8 9.7 0.00 0.00 0.00 79 1010.9
20260831124018 15 165 4.8 11.3 0.00 0.00 0.00 78 1010.9
20260831123017 15 170 4.8 12.9 0.00 0.00 0.00 77 1010.9
20260831122013 15 156 6.4 11.3 0.00 0.00 0.00 76 1010.8
20260831121017 15 162 8.0 16.1 0.00 0.00 0.00 75 1010.7
20260831120010 15 170 6.4 14.5 0.00 0.00 0.00 75 1010.7
20260831115012 15 170 6.4 11.3 0.00 0.00 0.00 74 1010.7
20260831114014 16 176 4.8 11.3 0.00 0.00 0.00 73 1010.7
20260831113010 16 158 4.8 8.0 0.00 0.00 0.00 72 1010.7
20260831112030 16 142 4.8 11.3 0.00 0.00 0.00 72 1010.7
20260831111013 16 143 4.8 8.0 0.00 0.00 0.00 71 1010.6
20260831110034 16 147 4.8 8.0 0.00 0.00 0.00 70 1010.7
20260831105038 16 111 3.2 11.3 0.00 0.00 0.00 70 1010.8
20260831104020 16 168 4.8 9.7 0.00 0.00 0.00 69 1010.7
20260831103022 16 155 4.8 9.7 0.00 0.00 0.00 69 1010.6
20260831102022 17 172 3.2 8.0 0.00 0.00 0.00 69 1010.5
20260831101027 17 173 4.8 9.7 0.00 0.00 0.00 69 1010.5
20260831100024 17 159 4.8 8.0 0.00 0.00 0.00 69 1010.4
20260831095023 17 161 4.8 11.3 0.00 0.00 0.00 68 1010.4
20260831094041 17 172 4.8 9.7 0.00 0.00 0.00 69 1010.3
20260831093018 17 174 3.2 9.7 0.00 0.00 0.00 67 1010.4
20260831092021 17 174 4.8 9.7 0.00 0.00 0.00 66 1010.4
20260831091019 18 153 4.8 11.3 0.00 0.00 0.00 65 1010.7
20260831090014 18 153 3.2 6.4 0.00 0.00 0.00 64 1010.6
20260831085019 18 157 3.2 9.7 0.00 0.00 0.00 64 1010.5
20260831084022 18 153 4.8 12.9 0.00 0.00 0.00 63 1010.6
20260831083019 18 167 4.8 11.3 0.00 0.00 0.00 63 1010.6
20260831082022 18 150 4.8 8.0 0.00 0.00 0.00 62 1010.4
20260831081023 19 188 4.8 11.3 0.00 0.00 0.00 62 1010.6
20260831080014 19 147 3.2 8.0 0.00 0.00 0.00 62 1010.7
20260831075019 19 155 3.2 12.9 0.00 0.00 0.00 61 1010.7
20260831074019 19 115 6.4 16.1 0.00 0.00 0.00 61 1010.6
20260831073019 20 149 3.2 8.0 0.00 0.00 0.00 61 1010.5
20260831072020 20 157 3.2 11.3 0.00 0.00 0.00 60 1010.3
20260831071108 20 130 4.8 8.0 0.00 0.00 0.00 60 1010.4
20260831070025 20 107 4.8 11.3 0.00 0.00 0.00 59 1010.4
20260831065019 20 128 6.4 9.7 0.00 0.00 0.00 58 1010.4
20260831064017 20 128 4.8 9.7 0.00 0.00 0.00 57 1010.5
20260831063012 21 98 4.8 11.3 0.00 0.00 0.00 57 1010.5
20260831062030 21 145 3.2 11.3 0.00 0.00 0.00 57 1010.6
20260831061049 21 114 4.8 14.5 0.00 0.00 0.00 56 1010.6
20260831060039 21 139 4.8 11.3 0.00 0.00 0.00 56 1010.6
20260831055012 21 137 4.8 12.9 0.00 0.00 0.00 56 1010.5
20260831054013 21 149 6.4 12.9 0.00 0.00 0.00 55 1010.5
20260831053029 22 127 4.8 12.9 0.00 0.00 0.00 54 1010.4